Погода в Наре

Россия / Калужская область     55°12′40″N   36°52′59″E
темп.,
°C
ветер,
м/с
пор.,
м/с
влажн.,
%
обл.,
%
осадки,
мм/ч
давл.,
гПа
погр.,
м
9 мая, вс
вс900:00+6ссз61296100 2.6 1003788
03:00+4сз51197100 4.3 1006866
06:00+3сз51298100 1.3 1007905
09:00+3сз61296100 3.2 1010942
12:00+5сз61088100 0.4 10131017
15:00+10сз51055100 0.6 10141993
18:00+10ссз51157100 0.0 10161726
21:00+5сз37795 0.0 1020134
10 мая, пн
пн1000:00+3сз311815 0.0 1022231
03:00+2ссз310825 0.0 1025197
06:00+3с39770 0.0 1027206
09:00+9с47430 0.0 1028973
12:00+12ссв46330 0.0 10281461
15:00+14ссв46350 0.0 10271563
18:00+13ссв35490 0.0 1028988
21:00+6св22760 0.0 102935
11 мая, вт
вт1100:00+4св26780 0.0 102994
03:00+3св37840 0.0 1029124
06:00+5св311780 0.0 1030269
09:00+11всв59560 0.0 1029599
12:00+16всв57495 0.0 1028841
15:00+18всв46535 0.0 10271043
18:00+17всв37655 0.0 1027886
21:00+12св3118460 0.0 1027271
12 мая, ср
ср1200:00+10всв3119228 0.0 1026246
03:00+10св412975 0.0 1025293
06:00+11всв4129675 0.0 1024504
09:00+13в4118988 0.1 1024854
12:00+13вюв2790100 0.5 1025613
15:00+13в3894100 0.7 1024641
18:00+12в2109798 0.4 1023576
21:00+13вюв41096100 1.4 1021781
13 мая, чт
чт1300:00+13вюв41098100 1.4 1021722
03:00+12вюв279897 1.7 1021371
06:00+12вюв379793 0.1 1020397
09:00+15вюв478318 0.1 1020625
12:00+18юв576424 0.3 10191408
15:00+21ююв574823 0.4 10182092
18:00+19ююв356115 0.0 1018804
21:00+13вюв27957 0.0 1018134